Theta_e
346 346 347 347 347 348 347 348 349 349 349 349 348 345 343 342 343 343 344 345 344 344 343 343 340 339 338 337 336 334 333 337 340 342 342 343 343 342 343 343 342 342 342 341 341 340 340 340 340 339 339 339 339 338 339 341 342 342 343 343 343 345 345 345 345 345 345 344 343 343 343 344 345 345 345 346 346 346 345 345 344 343 344 343 343
345 346 346 346 348 348 348 348 348 349 348 348 349 346 343 342 343 344 344 345 345 345 345 345 344 342 340 338 337 335 333 335 337 339 341 342 342 343 344 345 345 344 343 342 340 339 339 339 339 339 338 337 336 336 336 338 339 341 342 343 343 343 344 344 344 344 344 344 344 344 343 343 344 344 345 345 345 346 346 346 345 343 342 342 342
345 346 346 346 347 347 348 348 348 348 348 348 349 347 343 342 344 345 344 345 346 346 346 346 346 345 343 340 339 338 336 335 334 336 338 340 342 342 344 346 347 346 345 343 341 340 339 339 339 339 338 337 336 337 338 337 339 340 341 343 343 343 343 344 344 344 344 343 343 344 343 343 342 344 345 345 345 345 346 346 346 345 344 343 343
344 346 346 346 346 346 347 347 348 348 347 347 348 348 344 342 344 345 345 346 346 346 347 347 346 346 344 343 342 342 339 337 335 334 335 338 339 341 342 345 347 347 346 344 342 341 340 339 339 339 339 339 339 340 340 340 341 342 343 343 343 343 344 343 344 344 343 343 343 344 344 344 343 343 344 346 345 344 345 346 346 346 346 346 345
343 344 346 346 345 346 347 347 347 348 347 347 348 347 345 344 345 346 346 346 346 346 347 346 345 344 344 345 344 343 342 340 338 336 334 335 336 338 340 343 346 347 346 346 344 343 343 340 339 339 338 339 339 339 339 339 340 341 342 343 343 343 343 343 343 344 343 342 342 344 345 345 344 344 344 345 345 345 346 346 347 346 346 346 346
343 344 345 345 344 345 347 347 347 347 348 348 348 347 346 345 346 347 347 347 346 346 347 346 345 344 344 344 344 344 344 342 342 340 338 335 335 335 337 340 344 347 346 346 345 344 344 342 340 338 337 337 337 337 337 338 338 339 338 340 341 342 342 341 342 343 342 341 342 345 346 345 345 345 345 346 345 346 346 346 346 346 346 346 346
341 343 345 345 344 345 346 347 348 348 348 349 348 347 346 346 348 347 347 348 347 347 347 346 345 345 344 344 345 345 345 344 344 344 341 339 336 334 335 336 340 343 344 345 344 344 343 341 338 336 335 335 335 335 335 336 337 337 337 337 339 340 340 339 339 340 340 339 343 346 346 346 346 346 346 346 346 346 346 346 346 346 346 347 347
339 341 344 346 346 346 347 347 347 348 349 350 349 347 346 347 348 348 348 348 348 347 347 347 346 344 344 345 345 345 346 345 345 344 343 341 339 337 337 336 336 337 339 340 340 339 338 336 335 335 334 335 334 333 334 335 337 337 337 338 340 340 340 340 339 339 338 338 342 346 346 346 346 346 346 347 346 347 346 346 347 346 347 347 347
340 339 341 344 346 346 347 347 347 348 350 350 350 349 348 348 349 348 348 349 349 348 348 347 346 344 345 346 346 346 346 346 346 345 344 344 343 342 341 340 339 337 336 335 335 335 335 334 335 335 335 333 332 332 332 334 335 336 338 340 341 342 341 341 341 340 340 340 341 345 346 346 346 346 347 347 347 347 347 347 347 346 346 347 346
342 341 342 344 345 345 345 347 348 348 349 350 350 350 350 349 349 349 349 349 349 349 348 348 347 346 346 346 346 346 346 346 346 345 345 345 344 344 343 342 342 340 339 338 337 336 336 336 336 336 334 333 332 332 332 333 334 337 339 341 342 343 343 343 343 343 342 342 342 345 346 346 346 347 347 347 347 347 347 347 347 347 347 347 346
344 344 345 345 345 345 345 347 348 348 349 349 349 349 350 350 349 349 348 348 348 348 347 346 346 346 346 346 346 346 346 346 346 345 345 345 345 345 344 344 343 343 342 342 341 340 339 338 337 336 335 333 332 333 333 334 336 338 341 344 345 345 345 345 344 343 343 344 344 345 346 346 346 346 346 347 347 347 347 347 347 347 347 348 347
345 346 347 346 345 346 346 347 347 346 346 346 346 347 348 348 348 347 347 347 347 348 346 345 345 345 345 345 345 345 346 346 347 347 346 345 344 345 344 344 344 344 344 344 343 342 342 341 340 339 337 335 335 336 338 339 341 342 343 345 347 347 346 346 345 344 344 344 344 344 345 345 347 347 346 346 346 347 347 347 347 348 347 348 348
346 347 347 347 346 346 346 347 346 345 345 344 344 346 345 346 346 346 346 346 347 347 346 345 345 344 344 344 344 344 344 345 346 346 345 345 344 345 345 345 346 345 346 346 345 345 344 344 343 342 341 341 340 341 342 343 343 344 345 346 346 346 347 346 345 345 345 345 344 345 343 343 345 346 347 347 347 347 347 347 347 347 347 348 348
346 347 347 346 345 345 346 347 346 346 346 345 345 345 345 345 345 346 346 346 346 346 346 346 346 344 344 344 344 344 344 344 345 345 345 344 343 344 345 346 346 345 345 346 346 346 346 345 344 343 343 344 344 344 344 344 343 344 345 346 346 346 346 345 344 345 345 345 346 345 346 345 345 345 346 346 346 346 347 348 348 348 348 347 347
344 346 345 344 345 344 345 346 345 346 346 346 346 346 345 345 345 345 345 345 345 345 345 346 346 344 344 344 344 345 344 343 344 345 345 344 344 345 345 345 346 345 345 345 346 346 345 345 344 342 342 343 345 345 345 344 344 344 344 345 346 346 346 345 344 344 345 345 345 346 347 347 347 346 347 347 347 347 347 348 348 348 348 348 347
343 344 344 343 343 344 344 345 345 345 346 345 346 346 346 345 345 346 346 345 345 345 345 346 345 345 344 344 345 345 345 344 344 344 344 344 344 345 345 345 345 345 345 345 345 345 345 344 344 343 342 342 344 345 344 344 343 344 345 345 346 346 346 346 345 344 345 347 346 346 347 348 348 348 348 348 348 348 348 348 348 348 348 347 346
343 343 343 342 342 344 344 345 345 345 345 345 345 345 345 346 346 346 346 346 346 346 346 345 345 345 345 345 345 345 345 345 345 345 344 345 345 345 345 345 345 345 345 345 344 344 345 345 345 345 344 343 344 344 344 344 344 344 345 345 345 346 345 345 344 344 346 347 346 346 346 346 346 347 346 346 347 347 347 347 347 348 349 348 347
343 343 343 343 344 345 345 345 344 344 344 344 344 345 345 345 345 345 346 346 345 345 345 345 345 345 345 345 345 345 345 345 345 345 345 345 345 345 345 345 345 345 345 344 344 345 345 345 345 345 345 345 344 344 344 344 344 343 343 344 344 344 344 343 344 345 346 346 346 346 346 345 345 345 345 345 345 345 345 345 346 347 348 347 346
343 344 344 345 345 346 346 345 344 342 343 343 344 345 344 345 345 345 346 346 346 345 345 345 345 345 345 345 345 345 345 345 345 345 345 345 344 344 345 345 345 345 344 343 344 344 344 344 345 344 345 344 344 344 343 343 342 342 342 343 343 343 342 343 343 344 344 345 345 345 345 345 345 345 345 344 343 343 343 343 344 346 346 346 345
343 343 344 344 345 345 345 345 344 343 343 343 344 345 345 345 346 346 346 346 346 346 346 346 345 345 345 345 345 345 345 345 345 345 345 344 344 343 343 343 344 344 344 343 343 344 344 344 344 344 344 344 343 343 343 343 343 342 342 342 342 342 342 342 342 343 342 343 344 345 345 345 345 345 345 345 343 341 340 339 341 342 344 344 344
342 342 343 343 343 344 344 344 345 344 344 344 345 345 345 345 346 347 347 346 346 347 346 346 344 344 344 344 344 344 344 344 344 345 344 344 343 343 343 343 343 344 343 343 343 344 344 344 343 344 344 343 343 343 343 343 342 342 342 342 342 342 342 342 342 342 342 343 343 344 344 344 345 345 344 344 344 342 340 339 339 341 342 343 343
341 341 342 341 341 342 343 343 344 344 344 345 345 345 345 346 346 346 345 345 346 347 346 345 343 343 343 343 343 343 344 344 344 344 344 343 343 343 343 343 343 343 343 343 343 343 343 343 343 344 344 344 343 343 343 342 343 342 343 342 343 343 343 342 343 343 344 344 343 344 344 344 344 344 344 344 343 342 341 340 340 341 342 341 342
341 340 341 341 340 340 341 341 342 342 343 344 344 345 345 346 345 345 344 344 345 347 346 345 344 344 343 343 343 343 343 343 343 344 344 344 344 343 343 344 344 343 343 343 343 343 343 344 344 344 344 344 343 342 342 342 343 343 343 343 343 344 344 343 343 344 344 344 344 344 344 344 344 344 343 344 343 343 342 342 342 343 344 343 342
339 339 339 340 340 340 340 341 341 341 341 342 343 344 345 346 346 345 344 344 345 346 346 346 345 345 344 344 344 344 344 344 343 344 345 345 345 345 345 345 344 344 344 344 344 344 344 345 345 345 344 344 344 344 344 344 344 345 344 345 344 344 344 344 344 344 344 344 344 344 344 343 344 344 344 343 344 344 344 344 344 344 345 345 344
338 337 336 337 339 340 339 340 340 341 341 341 342 343 344 345 346 346 345 345 345 345 345 345 345 345 345 345 345 345 344 344 345 344 345 345 345 345 346 345 345 345 345 345 345 346 345 345 345 345 345 345 344 344 344 344 344 344 344 343 343 343 343 342 342 343 343 342 343 343 343 342 342 342 342 343 343 344 344 344 344 343 344 345 346
337 336 335 335 337 339 339 339 340 341 341 342 342 342 343 343 344 345 345 345 345 345 345 345 345 346 346 346 345 345 344 344 345 345 344 345 345 344 345 345 345 345 345 346 346 346 346 346 345 345 344 344 344 344 344 344 343 343 343 343 343 343 343 343 343 343 343 343 342 342 341 341 341 341 341 341 341 341 341 341 342 341 342 345 346
336 336 336 335 336 338 339 339 340 341 342 342 342 343 343 344 345 345 345 345 345 345 345 346 346 345 346 346 345 345 345 344 345 345 345 345 345 345 345 345 345 346 346 346 346 346 346 345 345 345 344 343 343 343 342 341 341 340 340 340 339 339 340 340 340 340 340 340 341 341 340 340 341 341 341 342 342 342 342 342 342 341 342 344 346
337 336 336 336 336 338 339 340 341 342 342 342 341 342 342 344 344 345 345 344 344 344 344 345 345 345 345 345 345 345 346 345 345 345 345 345 346 345 346 346 345 346 346 345 345 345 344 343 342 341 340 339 338 337 336 336 336 335 335 336 335 336 336 336 336 336 336 337 337 337 337 337 338 338 338 339 340 340 341 343 344 344 344 345 346
339 338 337 336 338 339 339 340 341 342 342 342 341 341 341 341 341 341 341 341 342 342 343 343 343 344 344 344 345 344 345 345 344 344 344 344 344 345 344 344 344 344 343 342 341 340 338 337 336 336 335 335 335 334 334 334 334 335 336 336 337 337 337 337 337 337 337 337 338 338 338 337 337 337 336 336 336 335 337 340 343 344 344 345 345
341 340 338 337 338 339 340 340 340 341 341 341 340 339 339 338 339 339 340 340 340 340 341 341 341 342 342 343 343 342 342 342 341 341 341 340 341 341 341 340 340 339 338 337 336 335 335 335 334 335 334 333 333 333 333 334 334 336 336 337 337 338 338 337 337 337 336 336 336 337 337 337 337 338 338 338 337 336 335 337 339 340 342 343 344
341 341 339 337 338 339 340 340 340 340 340 340 339 339 338 339 339 339 340 340 340 339 339 339 339 339 340 340 340 340 340 339 339 339 338 337 337 337 336 336 336 335 335 335 335 335 334 334 334 334 333 332 332 333 334 334 335 335 336 336 336 337 337 337 336 337 337 336 336 336 336 337 339 339 341 341 340 340 340 339 338 338 340 341 342
338 340 339 339 339 339 340 341 341 340 340 340 340 339 339 339 339 339 339 339 339 338 338 338 338 338 337 337 338 338 338 338 338 337 336 335 335 335 335 335 336 336 336 335 334 333 333 333 334 333 333 333 333 334 334 334 334 334 335 335 335 335 336 336 336 337 337 337 337 337 337 337 338 339 340 340 340 340 341 341 340 341 341 341 342
331 334 338 339 340 339 340 341 341 341 342 341 340 340 340 340 340 340 340 339 338 338 338 338 337 337 336 335 335 335 335 335 335 335 334 334 335 335 336 336 337 337 336 334 331 331 333 334 334 334 334 334 334 334 335 334 333 333 333 334 335 335 336 336 336 336 337 337 338 338 338 338 338 338 338 338 337 338 339 340 340 341 342 341 342
328 330 335 339 340 340 340 340 340 341 341 341 341 341 340 340 341 341 341 340 339 339 339 338 338 337 337 336 334 333 333 334 333 334 334 335 335 336 336 337 337 336 334 332 331 332 334 335 335 335 335 335 335 334 335 334 333 333 333 333 334 335 335 335 336 335 336 336 337 337 338 338 338 338 338 338 338 339 340 340 340 340 340 340 341
332 332 336 340 341 341 341 340 340 340 341 341 342 341 341 341 341 340 341 341 340 340 340 339 339 338 338 337 336 334 333 333 334 335 336 336 336 337 337 336 336 334 332 332 333 334 335 335 335 334 333 333 333 333 333 333 333 333 333 334 334 334 334 334 334 334 335 335 335 336 336 337 337 337 337 338 338 339 339 339 338 338 338 339 339
335 337 338 340 340 340 339 339 339 340 341 341 342 342 342 342 341 341 341 340 340 340 340 339 339 339 338 338 337 336 335 335 336 336 336 336 337 336 336 335 333 332 332 333 335 335 334 332 330 329 328 328 328 329 330 331 332 332 333 334 334 333 333 333 333 333 333 333 334 335 335 336 336 336 336 336 337 337 337 337 337 337 337 337 337
336 337 338 338 339 339 338 338 339 339 340 341 341 341 341 341 341 340 341 340 340 339 339 339 339 338 338 338 338 337 336 336 336 336 336 336 335 335 334 333 331 331 333 334 332 329 327 323 321 321 320 321 322 324 327 329 331 331 332 333 333 333 333 333 333 332 332 332 333 334 334 334 335 335 334 334 335 335 335 335 335 335 335 335 335
337 337 337 338 338 338 338 338 339 340 340 339 340 340 340 340 340 339 339 339 339 338 338 339 339 337 337 338 338 338 337 337 337 337 335 334 333 332 331 330 330 331 331 329 325 321 318 316 316 316 316 317 319 322 324 326 328 330 331 332 332 332 332 332 332 332 332 332 332 333 333 333 333 333 333 334 334 334 334 334 334 334 334 334 334
338 338 337 337 338 338 338 338 337 336 335 335 335 335 335 335 335 335 336 337 338 338 338 338 338 337 337 338 338 338 338 338 337 336 333 331 329 328 327 327 327 327 324 321 319 319 317 316 316 316 315 316 317 318 319 321 324 327 329 330 331 330 330 331 331 331 331 332 332 332 332 331 330 330 331 332 333 333 333 333 333 333 333 333 332
339 338 337 337 337 335 333 332 330 329 329 329 330 330 330 330 330 332 333 335 336 336 338 337 337 336 336 336 337 338 337 337 336 333 329 326 324 323 322 322 321 320 320 322 324 324 323 321 321 320 319 318 317 316 316 318 320 323 325 326 326 327 328 329 330 330 330 330 331 331 331 329 328 329 330 331 331 332 332 332 330 330 330 330 330
339 338 336 334 331 328 327 327 327 328 329 329 330 330 330 330 329 330 332 333 334 335 336 336 335 335 335 335 336 336 336 334 332 328 325 324 324 323 322 321 321 321 323 326 328 328 327 327 326 325 323 322 320 318 317 317 318 319 320 320 320 322 325 328 329 329 330 330 330 330 330 329 328 328 328 329 329 329 329 329 328 328 328 328 328
339 336 333 329 326 326 327 327 329 330 330 330 331 331 331 331 330 330 332 332 333 334 334 334 334 334 333 333 334 334 332 331 329 326 324 326 329 329 328 327 327 327 327 328 329 328 328 328 328 327 327 326 324 321 319 319 320 320 320 320 318 318 321 325 327 328 328 328 327 326 325 324 324 323 323 324 325 326 327 328 327 327 327 327 327
335 331 328 325 325 326 328 329 329 330 330 330 331 331 331 331 331 331 332 332 332 333 333 333 333 333 332 332 334 333 330 328 329 328 328 330 331 331 330 330 330 329 329 329 328 328 327 326 327 327 327 326 326 324 322 321 322 322 323 323 321 319 318 320 322 324 323 323 321 320 319 318 318 317 317 318 318 320 322 325 326 327 327 327 327
328 325 324 324 325 326 328 329 330 331 331 331 331 331 331 331 331 331 331 332 332 332 331 332 333 334 334 335 335 332 329 329 330 330 330 331 331 331 330 330 330 330 329 328 327 326 325 325 325 324 324 324 325 326 324 323 323 323 322 323 323 321 319 319 318 318 318 318 318 318 317 318 318 318 317 317 316 316 316 318 321 323 324 324 325
323 324 323 323 325 325 326 327 329 329 330 331 332 332 332 332 332 332 332 332 332 332 331 331 333 335 336 335 333 331 330 330 331 331 332 331 331 330 330 329 329 328 326 323 322 321 320 319 319 319 319 320 322 323 323 323 323 322 322 322 323 323 322 322 321 319 319 319 319 320 319 319 319 319 319 320 319 319 317 315 315 317 318 319 320
324 325 323 322 324 324 323 324 325 326 327 330 332 332 333 333 333 333 333 333 333 332 331 332 335 334 333 332 330 330 331 332 332 332 331 328 325 324 325 325 324 322 320 318 318 317 315 314 314 314 315 315 317 317 317 318 319 319 320 320 321 322 322 323 323 322 322 322 323 322 322 321 321 320 320 320 321 321 320 319 317 316 315 315 316
325 326 324 323 323 324 323 324 324 323 324 326 328 330 332 332 333 333 333 333 333 333 333 334 335 333 331 330 331 331 332 333 332 329 325 322 320 320 321 321 321 320 319 319 319 317 316 315 315 316 316 315 314 313 312 313 314 315 315 316 318 319 320 321 322 323 323 323 323 323 323 323 322 322 322 321 321 321 321 321 321 319 318 317 316
326 326 325 324 324 325 326 326 324 322 322 323 325 327 330 331 332 333 334 334 334 335 335 334 332 330 330 331 332 332 333 332 329 324 322 322 322 322 323 323 323 323 322 321 321 320 320 319 319 319 320 319 317 315 314 313 313 313 313 313 314 315 317 319 320 321 322 322 323 322 322 321 321 322 322 323 322 322 322 322 322 322 321 320 319
331 329 327 326 326 327 327 326 325 324 323 323 323 324 327 329 330 332 334 334 334 334 333 331 329 329 330 331 332 332 332 329 325 323 324 325 324 324 324 324 325 325 324 323 322 322 322 322 322 322 323 323 322 320 318 317 316 316 314 313 313 313 314 316 317 319 320 320 321 321 321 320 319 319 320 321 322 322 322 322 322 322 322 323 322
335 333 330 328 328 328 329 328 327 326 326 325 324 323 324 326 327 328 329 330 330 330 328 327 326 327 329 329 330 330 329 326 325 325 326 325 325 325 325 324 325 325 325 324 322 322 322 323 323 323 324 324 325 324 322 321 319 318 317 316 314 313 313 315 316 317 318 319 319 320 320 320 319 319 319 319 319 320 321 321 320 320 321 322 323
337 335 332 330 329 329 329 329 329 328 328 327 326 324 324 324 325 325 325 325 325 325 325 325 326 326 327 327 327 327 327 326 326 326 326 326 326 326 325 325 325 325 325 325 324 323 323 323 324 324 324 325 325 325 324 322 321 321 320 318 316 314 314 314 315 316 317 319 320 320 321 320 320 320 320 319 319 319 320 320 320 319 319 320 320
Wind_Speed
20 24 26 27 28 28 30 33 37 42 45 47 46 41 37 37 37 35 34 32 32 32 32 32 32 33 33 31 30 31 31 29 28 29 29 28 28 28 27 26 25 24 23 22 22 21 20 20 20 20 19 19 19 18 18 17 16 14 13 12 11 10 11 12 13 13 12 12 11 11 9 10 11 11 11 11 10 9 9 9 8 8 9 9 9
18 21 24 26 27 27 27 29 31 35 40 45 46 42 38 38 37 36 34 33 32 31 31 31 31 32 33 32 31 30 31 30 29 29 29 29 29 29 28 28 26 25 24 23 22 21 20 20 19 19 20 20 20 19 19 19 19 18 16 14 13 12 13 13 14 15 16 15 14 13 12 11 11 11 12 12 11 11 10 10 10 10 10 10 10
14 16 19 22 24 25 26 27 27 28 33 42 47 44 40 38 37 36 34 32 31 30 29 29 29 30 31 31 31 30 30 31 31 30 30 30 30 29 29 29 28 26 25 25 24 22 21 20 18 17 18 19 19 19 18 18 18 18 17 16 16 15 15 15 15 17 18 17 16 15 14 13 13 13 13 13 13 13 11 11 11 12 11 12 12
11 12 14 18 21 21 23 25 26 26 30 39 46 44 40 39 38 36 33 31 30 29 29 30 30 29 29 30 30 29 29 30 31 31 31 31 30 30 30 30 30 28 27 26 25 24 23 22 20 18 18 19 19 18 18 17 16 16 17 18 18 17 17 16 17 17 18 19 18 15 14 14 15 15 14 15 15 14 13 12 13 13 13 14 14
10 10 10 13 16 17 20 23 24 27 32 39 43 42 39 39 37 35 33 30 29 29 29 30 30 28 28 29 29 29 29 29 30 31 32 32 32 31 30 31 31 31 30 28 27 26 25 24 22 21 21 21 21 20 19 18 17 17 17 18 19 19 19 19 19 19 19 20 19 17 15 14 15 15 15 16 16 16 15 15 15 16 16 16 15
8 8 8 9 11 11 14 17 20 26 33 39 41 40 39 39 37 34 32 30 29 29 29 30 29 28 28 29 29 29 29 29 29 29 31 32 32 32 32 32 32 32 32 31 30 28 28 27 25 25 24 24 24 23 23 22 20 20 19 19 20 21 21 21 21 21 21 21 20 18 15 14 15 15 15 16 17 17 17 17 17 18 18 17 16
4 5 6 6 8 8 10 12 16 24 33 39 39 38 37 37 37 34 32 31 30 30 29 29 29 28 29 29 29 29 29 29 29 29 29 30 31 32 32 33 33 33 33 33 32 31 30 30 29 28 26 26 26 25 25 24 23 22 22 21 21 22 22 23 23 23 22 22 20 19 17 15 15 16 16 17 18 19 19 19 19 19 17 17 16
2 4 5 4 4 6 7 9 12 20 30 35 36 36 35 36 36 34 32 32 31 30 28 27 27 28 29 30 29 29 29 29 29 28 28 28 29 29 30 32 33 33 34 34 33 33 32 31 30 28 26 26 27 26 25 25 24 24 23 22 21 21 21 21 22 22 22 22 21 20 19 17 17 17 17 18 20 21 20 20 20 19 18 18 17
4 3 4 5 4 3 4 6 9 16 23 28 30 31 31 33 33 32 32 31 31 29 27 26 26 26 28 29 29 29 29 30 29 28 27 26 27 27 28 29 30 31 32 32 32 31 30 30 29 27 26 25 26 26 26 25 25 24 23 22 21 20 20 20 21 21 21 21 22 22 21 21 20 19 19 20 21 21 20 20 21 21 20 21 20
7 5 2 2 2 2 2 4 7 12 18 22 24 25 26 28 29 30 30 29 28 26 25 25 25 25 27 27 27 28 29 30 30 29 28 26 26 26 27 28 29 29 30 30 30 30 30 30 29 28 27 25 25 25 25 25 25 24 23 22 20 19 19 19 19 20 21 22 22 22 23 23 22 20 20 20 20 20 20 21 22 22 22 24 24
7 5 3 3 4 4 3 4 6 9 13 15 17 20 22 24 26 27 27 26 25 24 24 25 26 26 26 26 26 28 29 30 29 29 28 27 26 26 27 27 28 29 29 29 30 30 30 30 30 29 27 25 25 25 25 25 24 24 23 22 21 20 19 19 19 19 20 22 23 24 24 25 24 23 22 21 21 22 22 22 22 23 23 25 26
7 5 4 5 7 6 5 4 6 7 7 8 11 16 19 21 22 23 24 24 24 24 24 25 26 25 25 25 27 29 29 29 29 28 28 27 27 27 27 27 28 28 27 27 27 27 27 27 26 26 25 24 24 24 23 23 23 23 23 23 23 21 20 19 19 19 19 21 23 25 26 27 26 25 24 23 23 22 22 22 23 23 24 25 27
8 7 7 7 7 6 5 6 7 8 7 8 11 15 18 21 22 23 24 24 25 24 24 25 25 25 25 26 28 29 30 29 28 27 28 28 27 27 29 29 29 28 26 24 23 24 24 24 24 23 23 22 22 22 21 21 21 22 23 24 23 22 20 20 20 20 20 21 23 25 27 27 28 27 24 24 24 23 23 24 25 25 26 26 26
9 8 8 7 6 5 6 7 9 9 9 10 12 14 16 19 21 23 23 24 25 25 25 25 25 25 25 26 27 27 28 29 27 27 28 28 27 29 31 32 31 29 27 24 23 23 24 24 24 24 23 22 21 21 20 20 21 22 23 23 22 21 20 20 20 21 22 23 24 25 25 25 27 27 25 26 26 25 25 27 27 27 28 28 26
9 9 9 8 6 5 6 7 8 9 10 11 12 13 14 16 17 19 21 22 24 25 25 24 24 24 24 24 24 25 26 27 27 28 28 28 29 30 32 32 30 29 28 26 24 24 23 22 23 24 24 23 21 19 19 20 21 23 23 24 23 23 22 22 22 23 23 24 25 25 24 23 23 23 23 25 26 26 26 28 28 28 29 28 27
9 10 10 10 8 7 7 7 8 8 9 10 11 12 12 12 13 14 17 19 21 21 22 22 22 22 22 21 22 23 24 24 25 25 26 28 30 31 31 30 30 30 29 28 26 24 21 20 20 21 22 23 21 19 19 20 22 23 24 25 25 25 25 25 25 25 24 24 24 25 26 25 24 24 23 24 25 25 26 28 28 29 29 28 29
8 9 10 10 9 8 8 8 8 8 8 9 9 9 10 10 11 12 14 15 17 18 18 18 19 19 20 20 21 22 22 22 22 22 24 27 28 28 28 29 30 30 28 25 24 22 20 19 19 18 20 20 19 19 18 20 22 24 25 27 27 27 27 27 27 26 25 24 24 24 24 25 24 24 24 25 25 26 27 28 30 31 30 30 32
8 9 9 10 10 9 9 9 9 8 8 8 8 8 9 9 10 11 12 12 13 14 15 15 16 17 19 20 20 21 21 20 20 21 22 23 24 25 26 27 28 29 27 23 22 22 21 20 20 19 20 19 19 19 19 20 22 23 25 27 28 29 29 28 27 27 26 25 25 25 25 25 25 25 26 26 26 27 29 30 30 30 31 32 32
9 9 9 10 10 10 10 10 10 8 7 8 8 9 10 10 11 11 11 11 11 12 13 14 14 16 17 19 19 19 19 19 20 20 20 20 20 21 24 26 26 26 25 24 22 21 22 22 21 21 21 20 20 20 20 21 23 23 24 26 28 29 29 28 28 28 28 27 27 28 28 29 28 29 29 29 29 30 31 32 32 32 33 34 33
9 9 9 10 10 11 11 11 11 10 9 9 9 10 11 11 11 11 11 11 11 12 12 13 13 14 16 17 18 18 18 18 19 19 19 18 17 18 20 23 25 25 25 24 21 21 22 22 21 21 22 22 22 22 22 23 23 24 24 26 28 29 29 29 30 30 30 31 31 31 32 33 33 34 34 34 33 33 32 33 33 33 34 35 35
9 8 8 8 9 9 10 10 11 12 12 11 11 10 10 10 10 10 11 11 11 12 12 12 12 12 13 15 16 15 15 15 16 17 18 17 16 17 19 21 23 24 24 23 22 21 22 20 19 20 21 22 23 24 25 26 26 26 26 27 28 29 30 31 32 32 33 34 34 35 36 37 37 38 38 38 37 36 35 34 33 33 33 34 34
8 8 7 7 7 7 8 9 10 11 13 13 13 11 10 9 10 11 11 11 11 11 11 11 10 9 9 11 12 12 11 12 14 16 18 17 16 17 18 18 18 19 21 23 23 22 21 19 18 20 21 23 24 26 27 28 29 29 30 30 31 32 33 34 35 35 35 36 36 37 38 39 40 40 40 40 39 38 37 37 35 34 34 34 34
7 6 6 6 6 7 7 7 8 9 11 12 13 13 11 10 10 10 10 10 10 10 10 10 10 9 8 8 8 9 10 11 12 14 15 15 15 17 17 16 16 18 20 22 22 21 20 19 20 22 24 26 27 28 29 30 31 31 31 32 33 34 35 36 37 37 38 38 39 40 41 41 42 42 41 41 41 40 40 39 37 36 35 35 35
7 6 6 6 6 6 6 6 7 7 8 10 11 13 13 12 12 11 11 10 9 9 9 9 9 9 9 8 8 9 10 11 12 13 13 13 14 15 15 14 16 18 19 19 20 19 20 20 22 24 25 27 27 28 29 30 31 32 32 33 34 35 36 37 38 38 40 41 41 43 43 43 43 44 44 43 43 43 43 42 40 38 37 37 37
7 7 7 7 7 6 6 7 6 6 7 8 9 11 12 13 13 12 11 10 10 10 9 9 9 9 9 8 8 9 10 11 12 13 14 14 14 15 15 15 16 17 17 17 18 19 20 22 23 24 25 26 27 28 29 30 31 32 33 34 35 36 37 38 39 40 41 43 43 44 45 45 45 45 45 45 45 45 45 44 43 41 40 39 39
8 7 7 7 7 7 6 6 7 7 7 7 8 9 10 11 12 11 11 10 11 10 10 10 10 10 10 9 10 10 11 12 13 14 16 16 16 16 16 16 16 16 17 18 19 20 22 23 24 25 26 27 28 29 30 31 32 33 34 35 36 37 38 39 40 41 42 44 44 45 47 47 46 46 46 46 46 46 46 46 45 44 43 42 42
7 7 7 7 7 7 7 7 7 7 7 7 7 7 8 8 9 9 10 10 10 9 9 9 10 10 10 11 11 11 12 13 14 15 15 16 15 15 14 15 15 16 16 17 19 20 21 22 23 24 25 26 28 29 30 31 32 33 33 34 35 36 36 37 38 40 42 43 43 44 46 47 46 46 47 46 46 47 46 45 45 45 44 43 43
7 6 6 7 8 8 8 7 7 8 8 7 7 6 6 7 7 8 9 9 9 9 9 9 9 9 9 9 9 9 10 11 12 12 12 12 11 11 11 12 13 14 15 16 18 19 20 21 22 23 23 24 25 26 28 29 29 30 30 31 31 32 32 33 34 35 37 37 36 38 41 41 41 42 42 42 43 44 43 41 41 43 43 42 42
8 6 6 7 8 9 9 9 8 8 8 8 8 7 7 7 7 8 9 9 9 9 9 9 9 8 8 8 8 8 9 10 11 10 10 10 10 10 11 12 13 14 15 16 16 17 18 19 19 20 20 21 22 22 23 24 24 25 25 25 25 25 26 26 27 29 31 31 31 32 35 35 36 36 37 37 39 40 39 37 37 38 39 38 39
9 8 7 8 9 10 10 10 9 9 8 8 7 7 7 8 8 8 8 8 8 9 9 9 9 9 9 8 8 9 9 10 10 10 10 11 12 12 13 14 14 14 14 14 14 14 15 16 16 16 16 17 17 17 18 19 20 20 20 20 20 20 21 21 22 24 25 26 27 29 30 30 30 30 30 30 30 31 33 33 33 34 34 33 33
11 10 9 9 9 10 10 10 10 10 9 9 8 7 7 7 7 7 7 7 7 7 8 8 8 9 9 9 9 9 9 9 10 10 9 10 10 11 11 11 10 10 10 11 11 12 13 13 13 13 13 13 14 15 15 16 16 17 17 17 17 18 18 19 20 21 22 23 24 26 27 28 28 28 29 29 26 25 26 27 27 28 29 29 30
12 12 11 10 10 10 10 10 10 10 11 10 9 8 8 7 7 7 7 7 7 7 7 7 7 7 8 8 9 10 10 10 10 10 9 8 8 8 8 8 8 8 9 9 10 11 12 12 12 12 12 13 13 13 13 14 14 14 15 16 17 18 18 19 19 20 21 21 22 24 25 27 28 28 29 29 27 27 28 26 25 26 27 27 27
13 13 12 12 11 11 10 10 10 10 11 11 10 9 8 8 7 7 7 7 7 7 6 6 6 7 7 7 7 8 8 9 9 8 7 7 7 7 8 7 7 8 8 8 10 11 12 12 11 11 11 11 11 12 12 13 13 13 13 15 16 16 18 18 19 20 21 20 20 21 22 23 25 26 27 28 27 28 28 27 27 28 29 29 27
14 13 13 12 11 11 10 10 10 10 10 11 11 10 9 8 8 8 9 9 8 7 7 6 7 7 7 7 7 7 7 7 7 7 7 7 7 8 7 7 8 8 8 9 10 10 10 9 9 9 9 9 10 11 12 12 13 14 15 15 16 16 16 16 16 17 18 18 18 19 20 21 22 23 24 24 24 24 25 25 26 25 25 24 23
14 13 12 12 12 11 11 10 10 10 11 12 12 11 10 10 10 10 11 10 10 8 8 8 8 8 8 8 7 7 8 8 7 7 7 7 7 7 7 7 7 8 8 8 8 8 7 6 6 7 8 9 10 11 12 13 13 15 16 16 17 16 16 15 15 15 15 16 16 16 17 19 20 20 19 19 20 21 22 22 21 20 19 20 20
14 13 13 14 13 12 12 11 11 11 11 12 12 12 12 12 12 12 12 11 11 10 9 9 9 10 10 10 9 9 8 8 8 7 7 7 6 6 7 7 7 7 6 6 5 5 4 5 5 6 7 8 9 9 10 11 12 14 15 15 16 16 16 17 17 16 15 15 14 15 15 16 17 18 18 18 18 20 20 20 20 21 22 23 23
13 13 13 13 13 13 12 11 11 11 11 12 12 12 13 13 13 14 13 12 11 10 10 10 10 10 11 12 12 10 9 9 9 8 7 7 7 7 7 7 6 5 4 3 3 3 3 3 5 6 7 8 8 9 10 11 11 13 14 14 15 16 16 17 17 16 15 14 14 14 14 14 14 14 15 14 14 14 15 15 16 17 17 17 16
12 11 11 10 11 12 11 11 11 12 12 12 13 13 14 14 14 15 15 14 13 12 12 10 10 10 11 12 12 12 12 11 10 9 8 7 6 6 6 5 4 3 2 1 0 2 4 5 7 8 8 9 9 10 10 11 11 12 12 13 14 14 15 15 15 14 14 13 13 12 12 12 12 12 12 12 12 11 11 11 11 10 9 8 8
11 10 9 9 10 10 11 12 13 13 13 13 13 13 13 14 15 15 14 14 13 13 12 11 10 10 10 10 11 13 14 14 12 10 8 7 6 5 4 3 2 3 3 4 5 6 7 7 8 8 9 10 10 11 11 11 12 12 12 13 13 13 14 14 14 13 13 12 12 12 12 12 11 11 11 12 11 11 11 10 10 9 8 7 7
10 9 8 9 9 10 11 12 12 11 11 11 11 11 11 12 13 14 13 12 12 12 12 11 11 10 10 9 10 12 14 14 12 9 7 6 5 5 4 4 5 6 6 6 6 6 6 6 6 7 8 9 10 10 11 11 12 12 12 13 13 14 14 14 13 13 13 13 13 13 13 13 12 11 11 11 10 10 10 9 8 7 7 7 7
10 9 10 10 10 10 10 10 9 9 9 9 9 9 9 9 11 12 12 12 12 12 12 12 11 11 10 8 8 9 12 12 10 9 9 8 7 6 6 6 6 6 6 6 5 4 4 3 4 5 6 7 8 9 9 10 11 12 12 13 13 13 13 13 13 13 13 13 13 13 13 13 13 12 11 11 11 11 10 10 9 8 7 8 8
12 12 11 11 10 10 9 9 8 8 8 9 9 9 8 8 9 10 10 11 12 12 11 11 11 11 10 9 8 9 11 13 12 12 11 9 7 6 6 6 6 5 5 4 3 3 2 2 2 2 3 4 5 6 7 8 9 11 12 12 13 13 13 12 12 12 12 13 13 13 13 13 13 13 13 13 13 13 12 12 12 11 10 11 11
13 13 12 11 11 10 9 8 8 8 9 9 10 10 10 10 10 10 10 10 11 11 11 11 11 11 12 12 11 11 14 15 14 12 10 8 7 7 7 6 6 6 5 4 3 2 2 1 1 0 1 2 3 3 5 6 7 9 10 11 12 12 12 12 11 11 12 12 13 13 13 14 14 15 14 14 14 14 13 13 13 13 14 15 14
14 13 13 13 12 11 9 8 7 7 8 9 10 11 12 13 12 12 12 12 12 12 12 12 12 12 13 14 14 15 16 16 14 12 10 9 8 8 8 7 7 6 5 4 3 2 3 2 2 2 1 1 2 2 3 4 5 7 8 8 9 10 10 10 10 10 11 11 12 13 13 14 15 15 16 16 16 16 15 14 14 13 14 14 14
15 15 15 14 13 11 9 7 6 5 6 7 8 10 11 12 13 13 14 14 14 14 13 12 12 13 14 16 18 19 17 15 13 12 11 10 9 9 8 7 7 6 5 4 3 3 2 2 1 2 2 1 1 2 3 4 5 6 6 6 6 7 8 8 8 9 9 10 11 12 12 12 13 13 14 15 15 16 16 16 15 14 13 12 12
17 16 16 15 14 12 9 7 6 5 4 4 6 7 8 9 10 12 13 14 14 13 13 13 12 13 15 18 20 19 17 15 13 12 11 11 10 9 8 7 7 6 5 4 4 3 3 3 3 2 2 2 2 2 4 5 6 6 6 6 5 5 6 6 6 7 7 7 8 9 10 10 10 10 11 12 12 13 13 14 14 14 13 12 12
17 16 16 16 15 13 11 8 7 5 4 3 4 4 5 6 7 8 10 11 11 12 12 13 13 16 18 19 19 18 16 15 14 13 12 11 11 10 9 8 7 7 6 5 4 4 4 4 4 4 4 4 3 3 4 4 5 6 6 7 7 6 5 5 4 5 5 6 6 7 7 7 7 7 8 8 9 9 9 10 10 11 11 11 11
20 18 18 18 16 14 12 10 8 7 6 4 4 4 4 5 5 6 7 9 10 11 12 14 16 18 18 17 17 16 16 15 14 14 13 12 11 10 9 7 6 5 5 4 4 3 3 2 2 3 4 4 4 4 3 4 6 6 7 7 7 7 7 6 5 5 6 6 7 7 6 6 6 6 6 6 6 6 7 7 7 7 7 8 7
23 22 21 20 18 16 14 11 8 7 6 6 5 4 4 5 5 6 8 10 11 13 14 16 17 16 16 16 16 16 16 16 16 15 14 12 10 9 8 6 5 4 3 3 3 2 1 1 1 1 3 4 5 5 5 5 6 7 8 8 8 9 8 8 7 6 6 7 7 7 7 6 7 6 6 6 6 6 6 6 6 5 4 4 5
24 24 24 23 21 18 15 13 11 9 7 6 6 6 6 6 6 7 9 12 13 15 16 16 16 16 16 16 16 16 17 17 16 15 13 12 11 9 8 7 6 5 4 4 4 4 3 3 3 4 4 6 7 7 7 7 7 7 8 9 9 9 9 9 8 7 7 7 8 8 8 8 8 7 7 7 6 6 6 7 7 6 5 3 4
25 24 25 24 23 20 18 16 14 12 10 8 7 7 7 8 8 9 10 12 14 15 16 17 17 16 16 15 16 16 17 17 15 14 13 13 12 11 10 9 9 8 7 7 6 6 6 6 6 6 7 7 8 9 9 9 8 8 9 11 11 11 10 10 9 9 9 9 8 9 9 9 9 8 8 8 8 7 7 7 7 7 7 6 5
Wind_Direction
258 254 250 247 244 241 239 237 235 234 234 232 230 226 224 221 220 220 219 219 219 218 218 219 220 221 220 220 221 221 221 220 220 221 222 224 226 227 227 229 232 235 237 238 239 241 243 242 242 241 242 244 247 250 251 252 256 262 267 270 274 283 290 295 298 300 299 300 307 311 305 300 304 313 318 316 312 309 305 305 305 302 297 293 291
265 257 250 246 246 246 243 238 236 234 231 230 229 226 223 222 220 219 219 218 218 218 219 219 220 221 222 222 222 223 223 223 223 224 224 226 226 227 228 228 231 234 237 240 241 243 246 247 246 246 248 249 250 252 253 252 254 257 262 266 270 277 284 290 294 296 297 298 299 300 300 297 294 299 307 308 306 304 301 303 303 300 296 295 295
271 260 246 242 245 247 245 239 237 236 232 229 227 223 221 222 220 218 218 218 218 219 219 220 221 222 222 223 223 224 225 226 226 227 227 227 227 228 229 229 230 233 237 240 243 244 248 250 250 251 253 253 252 253 255 255 254 255 257 262 268 274 279 283 287 291 296 297 295 294 294 292 288 288 292 295 297 299 299 298 297 296 294 294 295
275 267 251 243 243 244 244 241 236 234 230 226 224 220 218 220 220 217 217 218 218 218 218 220 221 221 222 223 224 225 226 228 228 230 230 230 230 230 231 232 232 233 236 240 244 246 249 250 251 254 257 256 254 254 256 258 258 257 257 260 265 270 273 276 280 286 292 295 293 290 287 286 283 281 281 285 289 292 294 293 294 295 293 291 293
279 279 270 253 244 240 241 239 235 233 228 222 219 215 214 218 218 217 217 217 217 217 218 220 222 220 219 221 223 224 226 227 228 230 231 232 233 233 233 233 234 235 237 241 245 248 250 252 252 255 259 260 259 258 259 260 262 262 262 261 263 266 269 273 277 282 287 290 289 285 282 282 281 279 278 280 282 285 288 290 293 296 296 294 296
283 290 292 266 247 244 242 239 241 236 223 216 213 209 211 216 217 216 215 215 216 217 218 222 223 221 219 220 222 224 226 227 228 229 230 232 234 235 234 234 235 237 239 242 245 248 251 253 255 257 260 261 261 262 263 264 264 266 267 266 265 265 267 270 274 278 281 284 282 279 279 279 277 276 274 275 278 280 283 287 293 298 300 299 299
292 306 310 279 255 261 256 246 242 225 209 206 207 205 209 215 216 216 216 215 217 218 219 222 222 222 222 221 220 223 226 228 229 230 230 231 233 235 235 236 237 238 240 242 245 248 251 254 256 258 259 260 261 261 263 265 267 268 269 270 269 268 268 270 273 274 276 276 274 272 274 275 274 274 274 275 276 276 280 287 295 301 302 300 297
272 322 337 323 279 272 263 244 227 205 196 198 202 202 207 215 217 219 218 218 219 219 220 223 223 224 224 222 221 223 225 228 229 229 229 229 231 233 235 237 239 240 242 243 245 248 250 252 254 256 257 259 260 260 261 264 267 268 269 269 269 269 271 272 272 272 271 269 266 267 270 271 270 272 274 273 273 276 283 288 294 301 304 300 294
242 272 345 1 343 297 260 233 215 201 197 200 202 204 210 216 219 221 220 221 221 220 222 225 226 227 225 223 223 224 226 228 228 228 228 228 230 233 236 238 239 241 242 244 245 248 250 251 253 255 257 259 259 258 259 262 265 266 267 267 267 269 272 272 270 268 266 264 262 264 267 267 268 270 272 272 276 282 285 286 290 298 301 298 294
242 253 289 342 320 278 236 221 210 206 207 208 206 207 212 217 221 223 223 224 225 225 226 228 229 229 226 224 225 225 227 228 227 228 228 230 234 237 239 240 240 241 243 244 246 248 250 252 254 256 258 259 258 256 258 260 262 264 266 266 266 269 272 272 269 266 263 262 261 263 265 266 266 268 271 274 279 282 283 284 289 294 293 291 291
236 247 248 237 230 221 220 228 220 215 218 219 214 212 214 219 223 225 225 227 228 230 231 232 234 234 230 229 230 229 229 228 226 227 229 232 236 239 241 243 242 243 244 246 248 250 252 254 255 257 257 256 255 256 258 261 261 263 265 267 270 272 271 271 271 269 265 263 262 262 264 265 266 268 271 274 276 278 281 285 288 288 286 285 286
222 223 224 229 229 222 217 224 229 222 216 215 215 215 219 223 225 227 228 229 232 234 233 233 235 235 233 234 236 235 233 231 229 230 232 234 237 240 241 243 243 243 243 245 248 250 251 252 253 253 253 251 252 256 259 262 264 265 266 268 269 269 268 270 273 273 271 270 269 266 264 264 266 268 270 273 275 277 280 283 285 286 284 281 282
212 207 207 221 231 230 220 220 225 221 210 205 208 211 216 222 225 227 229 232 234 236 236 234 232 231 231 235 238 238 236 234 233 234 236 237 239 241 242 243 243 242 241 244 249 250 249 250 250 249 249 249 251 254 259 263 265 265 266 266 264 262 265 269 273 274 276 277 276 273 270 268 268 268 270 275 277 278 280 282 284 284 281 280 282
212 207 202 209 220 225 224 222 223 221 215 214 215 216 218 222 226 229 231 234 235 237 238 238 235 232 231 233 237 239 238 236 234 236 239 241 242 243 243 242 243 243 243 243 247 251 252 253 254 253 252 252 253 255 260 265 265 264 263 261 259 260 264 268 272 275 277 277 277 276 276 275 273 272 274 277 278 280 281 282 283 283 283 284 285
211 208 203 202 205 213 218 218 218 216 213 215 218 219 221 223 225 228 231 234 237 238 239 239 237 235 232 232 236 239 238 236 234 235 239 242 243 243 243 243 244 246 248 248 248 250 253 255 257 257 255 253 253 256 262 266 266 265 263 261 260 262 265 268 272 274 274 273 273 273 274 276 276 275 274 274 276 279 281 282 285 286 285 287 288
208 208 205 201 199 201 203 202 205 208 210 215 216 214 216 219 220 223 226 229 232 234 235 235 234 233 233 233 235 237 236 233 232 233 237 239 240 241 242 244 245 247 250 251 250 248 250 252 255 257 256 254 253 256 263 267 267 266 264 262 262 263 266 270 274 274 271 270 271 271 271 272 273 274 274 274 276 279 281 283 285 283 282 285 287
204 206 206 204 202 202 198 194 196 200 205 212 213 211 212 212 213 218 223 226 229 231 232 233 233 235 236 236 236 235 232 230 229 230 233 236 239 241 244 246 247 247 248 248 246 246 248 250 252 254 254 253 254 258 263 268 268 266 263 262 263 266 270 273 274 271 269 270 272 272 272 273 273 273 274 275 277 279 280 281 282 282 283 285 287
202 202 201 202 203 201 198 197 198 198 199 203 205 207 209 210 210 213 221 228 232 234 235 235 235 235 234 233 232 231 229 228 229 229 232 238 242 245 246 248 247 244 242 241 242 245 249 252 253 254 252 250 253 259 264 267 268 266 265 265 267 269 271 272 272 269 268 270 272 271 271 272 272 274 274 275 276 276 276 276 279 281 283 284 285
203 202 200 201 203 203 201 200 199 194 189 191 198 203 205 205 206 209 214 219 221 224 227 229 230 230 229 229 230 230 230 230 229 231 236 244 248 247 248 249 246 241 237 238 241 247 252 254 254 253 251 250 252 258 264 267 267 266 265 266 266 267 268 268 269 270 270 270 270 270 270 270 272 275 276 277 276 274 272 273 274 276 277 279 282
201 203 204 204 208 211 208 203 199 193 188 188 193 199 202 203 204 207 208 207 209 215 220 225 228 229 229 229 229 230 232 232 232 235 239 244 248 247 246 246 244 238 235 237 242 247 250 251 251 252 254 254 256 260 265 267 267 267 266 265 266 268 269 270 270 271 271 271 270 270 270 271 273 274 275 276 276 275 274 274 273 272 273 276 278
196 196 199 200 203 210 212 209 203 197 192 193 196 199 202 205 210 213 212 208 210 215 220 227 232 232 230 229 228 228 231 231 229 228 229 233 240 244 244 242 240 237 237 240 243 245 245 245 247 251 255 257 259 262 265 267 268 269 269 269 271 273 274 274 274 274 273 272 272 272 272 273 274 274 274 274 275 276 277 277 276 275 274 274 275
194 192 192 192 194 198 203 206 205 202 200 200 202 202 201 204 209 212 214 215 214 214 216 220 222 222 222 225 224 223 224 222 220 221 225 227 232 239 244 245 244 243 245 246 245 243 244 245 248 252 255 258 261 263 264 266 267 268 269 270 271 272 272 273 273 273 273 273 273 273 274 274 274 274 274 274 275 276 278 279 279 278 277 275 274
201 200 196 193 192 193 196 200 203 205 207 207 206 205 203 205 210 213 215 217 216 213 214 215 213 208 206 205 206 209 214 218 221 226 229 228 230 237 242 245 248 250 251 250 248 246 248 251 254 256 259 261 263 264 264 265 265 266 267 268 269 270 270 270 271 272 272 273 273 273 274 274 275 275 275 276 276 278 279 280 280 279 278 277 276
210 214 214 210 200 195 195 198 199 201 206 209 209 208 207 207 211 215 216 217 217 218 219 220 220 216 209 200 196 201 211 220 224 229 232 229 232 240 243 242 243 246 248 248 248 250 253 256 259 262 264 265 266 266 266 266 267 267 269 270 270 271 271 271 272 272 272 273 272 273 274 274 275 276 276 278 279 279 279 280 279 278 278 278 277
215 221 225 223 216 207 199 198 199 199 199 203 206 209 209 209 211 215 217 220 224 228 229 229 231 230 225 217 210 211 222 231 234 236 239 238 237 242 249 249 244 243 246 251 255 258 262 264 266 268 269 270 270 270 270 270 270 271 272 272 272 273 273 273 274 274 274 274 274 274 275 275 276 277 278 279 279 278 278 278 278 278 279 279 279
216 223 226 224 224 221 212 205 204 201 200 198 198 200 202 205 208 210 213 218 225 230 233 232 233 234 233 229 225 222 227 235 239 241 243 243 241 241 246 249 249 249 254 259 263 265 266 267 269 270 272 273 274 274 274 275 275 275 275 275 275 275 275 275 275 275 275 275 275 276 276 276 277 278 278 278 277 277 277 278 279 280 280 279 279
216 222 223 222 225 225 220 213 204 199 201 203 201 198 194 195 200 205 210 216 221 225 229 230 230 232 234 233 232 230 230 235 241 243 244 246 246 243 244 248 252 256 259 261 263 264 266 268 271 274 276 277 278 279 279 279 279 279 278 278 277 277 277 276 276 276 277 277 277 277 277 277 278 277 277 277 277 277 277 278 278 279 279 280 280
221 225 222 218 220 222 223 220 208 201 202 205 205 205 200 199 203 209 216 221 222 223 226 228 227 228 230 229 230 232 232 231 232 235 239 245 248 247 247 248 250 253 256 259 264 267 270 272 275 276 278 279 279 280 280 280 280 280 279 279 279 279 279 279 278 278 278 278 278 278 277 277 276 276 275 275 275 275 276 277 277 277 278 279 280
232 240 234 221 216 218 222 223 218 213 212 210 209 211 213 217 219 221 224 228 229 231 234 234 231 230 228 225 221 220 221 223 224 227 233 240 246 248 250 252 254 257 261 264 267 270 272 274 276 279 282 283 284 285 285 285 285 284 283 283 283 283 283 283 284 284 284 282 279 277 276 277 277 277 278 278 277 276 276 276 277 277 278 279 279
236 242 239 227 219 217 219 222 224 224 224 223 221 220 220 224 225 225 229 232 234 238 240 240 240 238 236 235 230 226 229 235 239 241 242 244 247 250 253 256 259 260 262 264 266 270 274 278 282 285 288 291 294 296 298 298 297 296 294 292 291 290 291 291 293 296 296 293 287 282 281 284 286 286 286 285 285 285 284 281 279 277 276 276 276
237 240 238 232 225 220 219 221 223 226 227 227 227 228 229 230 228 226 229 232 235 239 241 242 245 246 244 243 242 240 241 247 251 254 255 253 251 250 249 251 252 254 260 266 273 280 285 288 290 294 297 302 307 310 313 314 313 312 309 307 304 303 301 300 302 303 304 302 296 291 289 289 291 293 292 289 290 294 295 289 283 279 277 276 276
238 238 236 234 230 224 221 220 221 224 226 226 229 233 235 236 236 234 235 237 237 239 243 246 250 252 253 253 252 249 249 251 252 254 254 251 247 243 242 246 253 261 271 280 287 293 297 297 297 300 304 308 312 316 320 322 322 320 317 314 311 309 306 304 301 300 301 301 299 295 291 286 283 286 290 289 289 293 295 294 290 288 288 287 283
239 237 231 229 228 226 222 221 223 225 226 228 232 236 238 240 243 245 246 245 241 242 248 252 253 255 256 256 254 251 247 243 241 240 238 237 239 242 247 257 267 276 284 291 296 299 299 298 299 303 307 312 316 320 322 324 326 327 326 323 320 317 313 309 304 301 301 302 299 297 294 289 284 282 283 283 282 284 289 292 291 289 289 288 285
237 232 225 222 223 224 223 225 228 229 230 231 233 236 240 243 246 248 249 248 246 249 255 257 253 252 253 252 248 244 237 230 227 228 230 235 243 249 257 266 274 282 291 297 298 298 297 297 303 311 320 326 329 330 331 333 335 337 336 334 332 330 326 323 318 312 309 306 302 298 296 294 292 287 281 278 277 279 283 287 287 285 283 283 284
237 227 219 217 220 223 225 227 230 230 230 230 232 237 242 243 243 245 247 248 249 251 255 255 251 246 246 249 249 246 241 236 234 236 240 244 248 255 264 273 280 291 299 300 297 296 298 307 320 331 339 342 342 340 341 341 340 340 339 337 337 337 336 334 332 329 326 322 316 310 304 300 300 298 293 287 284 283 284 284 283 282 281 281 283
236 227 221 219 221 223 223 222 223 225 227 230 236 242 245 246 246 247 248 248 250 250 249 249 249 246 244 246 248 248 246 244 245 250 254 253 254 261 269 276 284 294 300 300 301 306 316 329 342 349 352 352 349 346 344 341 339 339 339 339 341 343 343 342 341 341 340 338 335 331 327 321 317 314 310 303 296 292 291 289 287 286 286 287 289
230 225 224 222 221 221 219 217 219 224 229 235 240 243 245 247 248 249 250 250 254 255 252 250 252 250 246 245 247 247 245 243 249 257 259 255 258 265 268 271 281 293 298 298 304 321 347 6 15 17 14 8 2 356 351 348 345 344 344 345 348 349 350 351 351 349 347 345 342 338 334 331 329 328 326 323 317 311 306 304 301 297 295 296 299
230 227 226 225 222 221 221 222 225 229 234 239 242 243 243 243 244 246 247 247 249 251 252 252 252 248 242 240 242 242 241 242 248 254 253 249 254 260 259 260 269 274 266 244 148 73 65 60 53 45 37 28 21 15 10 6 2 358 356 356 356 356 355 354 355 355 353 350 347 343 341 341 343 346 346 345 343 340 335 330 326 321 316 319 327
229 226 224 224 224 225 227 230 233 237 241 244 245 245 243 242 241 242 242 241 242 244 247 248 246 241 236 235 236 237 238 240 243 244 240 235 233 235 232 226 214 194 165 133 112 95 83 75 67 58 51 43 35 29 25 20 16 12 10 7 5 3 2 360 360 1 2 1 360 359 359 360 1 2 359 354 351 351 348 343 341 341 342 347 356
224 225 224 226 227 231 234 236 238 241 241 241 241 241 242 244 243 240 238 236 235 237 241 241 235 230 229 235 242 243 239 235 232 227 218 204 191 181 169 159 156 152 141 126 115 105 96 85 74 64 56 47 39 32 28 25 23 20 17 16 14 12 10 9 10 11 12 13 14 14 14 15 16 14 9 4 2 360 358 357 360 7 15 24 32
226 231 228 226 227 231 233 232 232 233 231 230 230 230 234 239 237 233 232 230 227 231 237 238 233 226 224 233 251 248 232 219 209 198 184 172 163 158 152 150 151 150 145 140 134 124 112 95 75 62 54 47 41 34 30 29 29 27 24 23 21 20 19 19 21 22 23 24 24 25 26 28 30 31 29 28 28 27 24 24 28 34 48 61 69
228 233 229 223 220 219 218 217 219 222 225 229 231 227 224 226 224 221 220 220 221 226 233 235 235 232 230 237 247 235 212 197 189 184 178 173 172 173 173 175 173 168 170 173 164 143 130 112 79 60 48 41 35 33 31 30 29 29 27 25 26 26 26 28 31 33 35 37 37 37 38 39 39 41 41 41 42 42 43 45 47 52 60 67 74
225 226 221 213 207 203 203 207 214 221 228 232 232 228 226 225 224 220 214 213 215 219 224 228 230 230 230 233 232 217 198 188 184 183 183 184 187 189 192 195 191 187 191 196 182 158 161 164 150 75 35 24 17 20 25 24 20 21 22 23 26 30 32 34 37 41 46 50 50 49 48 46 44 43 42 42 43 44 47 51 55 59 62 65 68
214 211 206 200 196 194 195 198 207 220 228 230 229 228 228 228 229 228 225 222 220 221 223 224 222 221 221 220 211 199 192 187 184 184 187 192 197 201 202 202 199 198 202 207 197 189 200 212 228 254 287 330 338 345 356 1 3 9 14 19 24 29 34 38 40 43 47 50 50 48 47 46 45 43 42 42 41 41 44 48 52 56 60 63 66
204 203 201 198 195 192 188 186 193 208 221 224 224 225 227 228 230 232 231 230 228 225 223 219 216 215 212 202 192 189 189 186 184 187 194 200 204 207 205 203 202 199 198 197 193 194 199 204 219 253 280 295 311 322 334 338 341 348 358 6 15 21 25 30 35 38 40 41 40 40 40 41 41 40 40 40 39 38 39 42 45 48 52 57 62
205 206 206 203 199 194 189 185 188 195 205 212 215 219 224 226 228 228 228 226 224 221 218 215 211 202 191 183 181 185 188 186 187 193 198 198 194 189 183 180 177 172 166 162 158 141 118 110 104 83 52 28 355 336 333 330 330 331 335 340 348 358 6 13 18 23 26 28 28 28 29 32 34 35 35 36 36 35 35 35 37 40 43 47 53
212 213 212 208 202 197 192 188 190 195 197 191 190 198 209 217 221 223 220 215 213 212 212 208 197 184 177 178 183 186 187 186 188 189 186 177 168 160 156 152 147 144 141 138 130 113 105 105 95 69 48 31 14 4 356 349 341 333 330 330 332 335 340 344 348 353 357 359 1 4 6 9 13 17 19 22 24 24 24 24 26 29 32 35 42
219 218 216 210 204 198 194 190 189 194 197 191 181 182 189 199 207 208 202 197 197 197 195 188 180 177 178 183 187 187 186 186 184 181 175 170 162 157 155 151 144 138 135 134 129 118 111 108 87 58 41 22 7 359 357 356 353 347 342 336 332 329 328 323 321 326 333 337 342 345 348 351 355 359 0 1 2 5 8 8 9 11 13 14 21
223 222 219 213 206 202 199 192 184 185 193 199 198 190 181 182 187 188 185 183 182 181 178 176 176 179 183 186 187 187 187 185 183 181 180 178 174 170 171 171 168 164 161 162 166 171 178 212 299 352 2 358 353 346 336 333 340 345 344 339 331 325 322 317 313 315 322 330 336 341 343 346 351 356 358 357 359 2 5 5 4 1 352 344 343
222 223 221 217 211 207 203 195 186 185 192 201 203 198 191 187 186 183 182 181 180 179 179 180 182 184 186 187 189 190 190 189 188 190 191 193 193 195 198 202 208 212 215 219 224 230 243 262 278 293 309 324 335 338 331 322 319 328 336 336 330 322 316 313 309 308 311 318 325 331 333 337 340 344 348 352 356 359 0 1 3 5 1 343 321
223 225 224 221 217 213 209 203 197 196 199 202 203 204 203 202 200 197 193 190 188 186 186 187 187 187 188 190 192 194 195 196 200 204 206 208 213 218 221 226 232 235 236 239 242 244 251 262 272 280 290 302 316 324 323 318 313 315 324 330 329 324 318 316 314 314 313 315 318 321 323 324 325 327 331 336 339 342 344 346 348 353 356 355 348